2025-023A (62876 NORAD) Tracking and Keplerian Element Data

This shows tracking and keplerian element data for the satellite.

Feedback or suggestion? Click here.




ElementValue
Catalog62876
Name2025-023A
Epoch Orbit2
Epoch Day34.54383682
Epoch Year2025
RAAN304.8925
Inclination12.9783
Eccentricity0.5824013
Argument of Perigee175.1654
Mean Anonmoly194.9186
Mean Motion2.02723868
Decay Rate-3.4E-07
L11 62876U 25023A 25034.54383682 -.00000034 00000+0 -32715+0 0 9999
L22 62876 12.9783 304.8925 5824013 175.1654 194.9186 2.02723868 22



Live tracking and technical data element details for 2025-023A (NORAD 62876). 2025-023A can be tracked NOW for your location showing map with azimuth and elevation plus other details from your city location.







IsCatalogInMostPopularTable: catalog: 62876, numindb: 4
Update: records affected: 1



GetName: 62876 2025-023A

Hit Count: updated at: Sun, 09 Feb 2025 15:05:13 GMT